Weather in Malyy Ashap

Russia / Perm Krai     57°04′47″N   56°34′51″E
temp.,
°C
wind,
m/s
gust,
m/s
humid.,
%
clouds,
%
prec.,
mm/h
press.,
hPa
HPBL,
m
25 february, thu
thu2523:00−25n4109554 0.0 1030203
02:00−27n23992 0.0 103021
05:00−29nnw12992 0.0 103119
08:00−29wsw11950 0.0 103219
11:00−22sw23860 0.0 1031232
14:00−17sw34830 0.0 1030473
17:00−18sw358829 0.0 1029451
20:00−25ssw339723 0.0 102968
26 february, fri
fri2623:00−27s339812 0.0 102965
02:00−28s35970 0.0 102877
05:00−28s359528 0.0 1027114
08:00−29s35952 0.0 1025102
11:00−22s479425 0.0 1025330
14:00−17s4791100 0.0 1022526
17:00−15s4989100 0.1 1021653
20:00−19s389699 0.0 1019234
27 february, sat
sat2723:00−18sse3119698 0.1 1017422
02:00−18sse41195100 0.1 1013387
05:00−16se51390100 0.1 1009519
08:00−15se51195100 0.3 1005496
11:00−14ese51194100 1.2 1003439
14:00−12ese5995100 1.6 1001437
17:00−11ese5994100 2.7 1001459
20:00−12e51095100 1.3 1001431
28 february, sun
sun2823:00−13e51095100 1.9 1001363
02:00−13ene5995100 0.7 1000337
05:00−13ene4895100 1.2 1001318
08:00−13ene4995100 0.4 1001324
11:00−12ene5894100 0.8 1003396
14:00−10ene5893100 0.2 1004415
17:00−10ne5893100 0.4 1006469
20:00−13ne5995100 0.3 1008366
1 march, mon
mon123:00−15ne5995100 0.6 1011347
02:00−18ne5895100 0.1 1012308
05:00−18ne5896100 0.3 1014310
08:00−20ne4796100 0.1 1016289
11:00−18ne4695100 0.2 1018328
14:00−16nne4693100 0.0 1018355
17:00−15nne3592100 0.1 1018346
20:00−20n119932 0.0 101920